Douglas, AZ

6:34 PM MST on December 05, 2016 (GMT -0700)
Bisbee Douglas International

Weather History for KDUG - March, 2013

Change the Weather History Date:

Wednesday, March 6, 2013

  Actual Average Record
Temperature  
Mean Temperature 63 °F 53 °F  
Max Temperature 80 °F 70 °F 85 °F (1972)
Min Temperature 46 °F 36 °F 18 °F (1959)
Degree Days  
Heating Degree Days 2 12  
Month to date heating degree days 58 75  
Since 1 July heating degree days 2262 2111  
Cooling Degree Days 0 0  
Month to date cooling degree days 0 0  
Year to date cooling degree days 0 0  
Growing Degree Days 13 (Base 50)    
Moisture  
Dew Point 20 °F    
Average Humidity 24    
Maximum Humidity 37    
Minimum Humidity 11    
Precipitation  
Precipitation 0.00 in 0.02 in 0.22 in (1981)
Month to date precipitation 0.00 0.12  
Year to date precipitation 0.84 1.51  
Snow  
Snow 0.00 in - - ()
Month to date snowfall 0.0  
Snow Depth 0.00 in    
Sea Level Pressure  
Sea Level Pressure 29.91 in    
Wind  
Wind Speed 8 mph (SSE)    
Max Wind Speed 25 mph    
Max Gust Speed 35 mph    
Visibility 10 miles    
Events      
T = Trace of Precipitation, MM = Missing Value Source: NWS Daily Summary

Daily Weather History Graph

Daily Weather History Graph

Search for Another Location

Airport or City:

Trip Planner

Search our weather history database for the weather conditions in past years. The results will help you decide how hot, cold, wet, or windy it might be!

Date:

Astronomy

Mar. 06, 2013 Rise Set
Actual Time 6:39 AM MST 6:20 PM MST
Civil Twilight 6:14 AM MST 6:44 PM MST
Nautical Twilight 5:46 AM MST 7:12 PM MST
Astronomical Twilight 5:18 AM MST 7:41 PM MST
Moon 2:35 AM MST 1:20 PM MST
Length of Visible Light 12h 29m
Length of Day
11h 41m
Waning Crescent, 29% of the Moon is Illuminated
Mar 6
Waning Crescent
Mar 11
New
Mar 19
First Quarter
Mar 27
Full
Apr 2
Last Quarter

Hourly Weather History & Observations

Time (MST) Temp. Dew Point Humidity Pressure Visibility Wind Dir Wind Speed Gust Speed Precip Events Conditions
12:56 AM 57.9 °F 24.1 °F 27% 29.94 in 10.0 mi ENE 8.1 mph - N/A   Clear
1:56 AM 57.9 °F 21.9 °F 25% 29.94 in 10.0 mi SE 5.8 mph - N/A   Clear
2:56 AM 55.9 °F 21.9 °F 27% 29.91 in 10.0 mi Calm Calm - N/A   Clear
3:56 AM 53.1 °F 21.0 °F 29% 29.92 in 10.0 mi East 6.9 mph - N/A   Clear
4:56 AM 48.9 °F 21.0 °F 33% 29.95 in 10.0 mi East 4.6 mph - N/A   Clear
5:56 AM 48.0 °F 21.0 °F 34% 29.96 in 10.0 mi ENE 6.9 mph - N/A   Clear
6:56 AM 46.4 °F 21.2 °F 37% 30.11 in 10.0 mi Calm Calm - N/A   Clear
7:56 AM 54.0 °F 24.1 °F 31% 30.00 in 10.0 mi Calm Calm - N/A   Clear
8:56 AM 63.0 °F 24.1 °F 23% 29.99 in 10.0 mi SSE 5.8 mph - N/A   Clear
9:56 AM 69.1 °F 15.1 °F 13% 29.98 in 10.0 mi SSE 9.2 mph - N/A   Clear
10:56 AM 71.1 °F 14.0 °F 11% 29.96 in 10.0 mi Variable 5.8 mph - N/A   Clear
11:56 AM 72.0 °F 17.1 °F 12% 29.94 in 10.0 mi Variable 4.6 mph - N/A   Clear
12:56 PM 78.1 °F 21.9 °F 12% 29.88 in 10.0 mi Calm Calm - N/A   Partly Cloudy
1:56 PM 80.1 °F 27.0 °F 14% 29.84 in 10.0 mi SW 19.6 mph 29.9 mph N/A   Clear
2:56 PM 79.0 °F 21.9 °F 12% 29.83 in 10.0 mi SW 21.9 mph 32.2 mph N/A   Partly Cloudy
3:56 PM 78.1 °F 21.9 °F 12% 29.83 in 10.0 mi SW 16.1 mph 24.2 mph N/A   Clear
4:56 PM 77.0 °F 19.9 °F 12% 29.83 in 10.0 mi SW 20.7 mph 27.6 mph N/A   Clear
5:56 PM 73.0 °F 18.0 °F 12% 29.84 in 10.0 mi West 16.1 mph - N/A   Clear
6:56 PM 66.0 °F 16.0 °F 15% 29.87 in 10.0 mi West 11.5 mph - N/A   Clear
7:56 PM 61.0 °F 17.1 °F 18% 29.88 in 10.0 mi West 9.2 mph - N/A   Clear
8:56 PM 57.0 °F 17.1 °F 21% 29.88 in 10.0 mi Calm Calm - N/A   Clear
9:56 PM 54.0 °F 17.1 °F 23% 29.88 in 10.0 mi SSE 6.9 mph - N/A   Clear
10:56 PM 51.1 °F 19.0 °F 28% 29.89 in 10.0 mi ESE 8.1 mph - N/A   Clear
11:56 PM 51.1 °F 19.9 °F 29% 29.88 in 10.0 mi ESE 5.8 mph - N/A   Clear